• In Belgien
  • Länderverzeichnis
  • Für 7 Tage
  • Wassertemperatur
  • Satellitenkarten
  • Wetterkarte
  • Widgets
  • user-avatar
    Anmelden

    Stündliche Wetter Korçe

    Heute, 24 Januar, Mittwoch

    Zeit Temperatur Niederschläge Wind Luftdruck Luftfeuchtigkeit
    00:00 -3°C° 0 mm 2 m/S 669 mmHg 71%
    01:00 -4°C° 0 mm 2 m/S 669 mmHg 71%
    02:00 -4°C° 0 mm 2 m/S 669 mmHg 71%
    03:00 -4°C° 0 mm 2 m/S 669 mmHg 71%
    04:00 -4°C° 0 mm 2 m/S 669 mmHg 70%
    05:00 -4°C° 0 mm 2 m/S 670 mmHg 70%
    06:00 -4°C° 0 mm 2 m/S 670 mmHg 70%
    07:00 -5°C° 0 mm 2 m/S 670 mmHg 70%
    08:00 -3°C° 0 mm 2 m/S 671 mmHg 64%
    09:00 -2°C° 0 mm 2 m/S 672 mmHg 58%
    10:00 +1°C° 0 mm 2 m/S 672 mmHg 52%
    11:00 +2°C° 0 mm 2 m/S 673 mmHg 49%
    12:00 +2°C° 0 mm 2 m/S 673 mmHg 46%
    13:00 +3°C° 0 mm 2 m/S 673 mmHg 43%
    14:00 +3°C° 0 mm 2 m/S 673 mmHg 46%
    15:00 +3°C° 0 mm 1 m/S 673 mmHg 50%
    16:00 +3°C° 0 mm 1 m/S 673 mmHg 53%
    17:00 +1°C° 0 mm 1 m/S 673 mmHg 56%
    18:00 0°C° 0 mm 1 m/S 672 mmHg 59%
    19:00 -1°C° 0 mm 1 m/S 672 mmHg 62%
    20:00 -3°C° 0 mm 2 m/S 672 mmHg 62%
    21:00 -4°C° 0 mm 2 m/S 672 mmHg 63%
    22:00 -4°C° 0 mm 2 m/S 672 mmHg 63%
    23:00 -4°C° 0 mm 2 m/S 672 mmHg 63%

    Morgen, 25 Januar, Donnerstag

    Zeit Temperatur Niederschläge Wind Luftdruck Luftfeuchtigkeit
    00:00 -4°C° 0 mm 2 m/S 672 mmHg 62%
    01:00 -4°C° 0 mm 2 m/S 672 mmHg 61%
    02:00 -2°C° 0 mm 1 m/S 672 mmHg 60%
    03:00 -2°C° 0 mm 1 m/S 672 mmHg 59%
    04:00 -2°C° 0 mm 1 m/S 672 mmHg 57%
    05:00 -2°C° 0 mm 1 m/S 672 mmHg 56%
    06:00 -2°C° 0 mm 1 m/S 672 mmHg 55%
    07:00 -2°C° 0 mm 1 m/S 672 mmHg 53%
    08:00 0°C° 0 mm 1 m/S 672 mmHg 48%
    09:00 +2°C° 0 mm 1 m/S 673 mmHg 43%
    10:00 +3°C° 0 mm 1 m/S 673 mmHg 37%
    11:00 +4°C° 0 mm 1 m/S 673 mmHg 36%
    12:00 +5°C° 0 mm 1 m/S 673 mmHg 35%
    13:00 +6°C° 0 mm 1 m/S 672 mmHg 34%
    14:00 +5°C° 0 mm 1 m/S 672 mmHg 40%
    15:00 +5°C° 0 mm 1 m/S 672 mmHg 46%
    16:00 +4°C° 0 mm 1 m/S 671 mmHg 52%
    17:00 +3°C° 0 mm 1 m/S 671 mmHg 55%
    18:00 +2°C° 0 mm 1 m/S 671 mmHg 57%
    19:00 0°C° 0 mm 1 m/S 670 mmHg 60%
    20:00 0°C° 0 mm 1 m/S 670 mmHg 59%
    21:00 0°C° 0 mm 1 m/S 670 mmHg 59%
    22:00 0°C° 0 mm 1 m/S 670 mmHg 58%
    23:00 0°C° 0 mm 1 m/S 670 mmHg 57%

    übermorgen, 26 Januar, Freitag

    Zeit Temperatur Niederschläge Wind Luftdruck Luftfeuchtigkeit
    00:00 0°C° 0 mm 1 m/S 670 mmHg 56%
    01:00 0°C° 0 mm 1 m/S 670 mmHg 55%
    02:00 0°C° 0 mm 1 m/S 669 mmHg 55%
    03:00 0°C° 0 mm 1 m/S 669 mmHg 54%
    04:00 0°C° 0 mm 1 m/S 669 mmHg 53%
    05:00 0°C° 0 mm 1 m/S 669 mmHg 53%
    06:00 0°C° 0 mm 1 m/S 669 mmHg 53%
    07:00 0°C° 0 mm 1 m/S 669 mmHg 52%
    08:00 +2°C° 0 mm 1 m/S 669 mmHg 49%
    09:00 +3°C° 0 mm 1 m/S 670 mmHg 46%
    10:00 +5°C° 0 mm 1 m/S 670 mmHg 42%
    11:00 +6°C° 0 mm 1 m/S 670 mmHg 43%
    12:00 +7°C° 0 mm 1 m/S 670 mmHg 43%
    13:00 +8°C° 0 mm 1 m/S 670 mmHg 44%
    14:00 +7°C° 0 mm 1 m/S 670 mmHg 50%
    15:00 +6°C° 0 mm 1 m/S 670 mmHg 56%
    16:00 +5°C° 0 mm 1 m/S 669 mmHg 62%
    17:00 +4°C° 0 mm 1 m/S 669 mmHg 65%
    18:00 +3°C° 0 mm 1 m/S 669 mmHg 69%
    19:00 +2°C° 0 mm 1 m/S 669 mmHg 73%
    20:00 +1°C° 0 mm 1 m/S 669 mmHg 74%
    21:00 +1°C° 0 mm 1 m/S 669 mmHg 74%
    22:00 +1°C° 0 mm 1 m/S 669 mmHg 75%
    23:00 +1°C° 0 mm 1 m/S 669 mmHg 74%

    27 Januar, Samstag

    Zeit Temperatur Niederschläge Wind Luftdruck Luftfeuchtigkeit
    00:00 +1°C° 0 mm 1 m/S 669 mmHg 74%
    01:00 +1°C° 0 mm 1 m/S 669 mmHg 74%
    02:00 0°C° 0 mm 1 m/S 669 mmHg 73%
    03:00 0°C° 0 mm 1 m/S 669 mmHg 71%
    04:00 0°C° 0 mm 1 m/S 669 mmHg 70%
    05:00 0°C° 0 mm 1 m/S 669 mmHg 69%
    06:00 0°C° 0 mm 1 m/S 669 mmHg 67%
    07:00 0°C° 0 mm 1 m/S 670 mmHg 66%
    08:00 +2°C° 0 mm 1 m/S 670 mmHg 61%
    09:00 +4°C° 0 mm 1 m/S 671 mmHg 55%
    10:00 +6°C° 0 mm 1 m/S 672 mmHg 50%
    11:00 +7°C° 0 mm 1 m/S 672 mmHg 50%
    12:00 +8°C° 0 mm 1 m/S 672 mmHg 49%
    13:00 +9°C° 0 mm 1 m/S 672 mmHg 49%
    14:00 +8°C° 0 mm 1 m/S 672 mmHg 54%
    15:00 +7°C° 0 mm 1 m/S 672 mmHg 59%
    16:00 +7°C° 0 mm 1 m/S 672 mmHg 64%
    17:00 +5°C° 0 mm 1 m/S 672 mmHg 68%
    18:00 +4°C° 0 mm 1 m/S 672 mmHg 72%
    19:00 +3°C° 0 mm 1 m/S 672 mmHg 75%
    20:00 +3°C° 0 mm 1 m/S 672 mmHg 75%
    21:00 +2°C° 0 mm 1 m/S 672 mmHg 75%
    22:00 +2°C° 0 mm 1 m/S 673 mmHg 75%
    23:00 +2°C° 0 mm 1 m/S 673 mmHg 76%

    28 Januar, Sonntag

    Zeit Temperatur Niederschläge Wind Luftdruck Luftfeuchtigkeit
    00:00 +1°C° 0 mm 1 m/S 673 mmHg 76%
    01:00 +1°C° 0 mm 1 m/S 673 mmHg 76%
    02:00 +1°C° 0 mm 1 m/S 673 mmHg 76%
    03:00 +1°C° 0 mm 1 m/S 673 mmHg 76%
    04:00 +1°C° 0 mm 1 m/S 673 mmHg 76%
    05:00 +1°C° 0 mm 1 m/S 673 mmHg 76%
    06:00 +1°C° 0 mm 1 m/S 674 mmHg 76%
    07:00 +1°C° 0 mm 1 m/S 674 mmHg 75%
    08:00 +3°C° 0 mm 1 m/S 675 mmHg 68%
    09:00 +4°C° 0 mm 1 m/S 676 mmHg 62%
    10:00 +6°C° 0 mm 1 m/S 676 mmHg 55%
    11:00 +7°C° 0 mm 1 m/S 677 mmHg 52%
    12:00 +8°C° 0 mm 1 m/S 677 mmHg 49%
    13:00 +9°C° 0 mm 1 m/S 677 mmHg 46%
    14:00 +9°C° 0 mm 1 m/S 676 mmHg 51%
    15:00 +8°C° 0 mm 1 m/S 676 mmHg 56%
    16:00 +7°C° 0 mm 1 m/S 676 mmHg 61%
    17:00 +6°C° 0 mm 1 m/S 676 mmHg 65%
    18:00 +5°C° 0 mm 1 m/S 676 mmHg 69%
    19:00 +3°C° 0 mm 1 m/S 676 mmHg 72%
    20:00 +3°C° 0 mm 1 m/S 676 mmHg 72%
    21:00 +3°C° 0 mm 1 m/S 676 mmHg 73%
    22:00 +2°C° 0 mm 1 m/S 676 mmHg 73%
    23:00 +2°C° 0 mm 1 m/S 676 mmHg 73%

    29 Januar, Montag

    Zeit Temperatur Niederschläge Wind Luftdruck Luftfeuchtigkeit
    00:00 +2°C° 0 mm 1 m/S 676 mmHg 72%
    01:00 +1°C° 0 mm 2 m/S 676 mmHg 72%
    02:00 -1°C° 0 mm 2 m/S 676 mmHg 72%
    03:00 -1°C° 0 mm 2 m/S 675 mmHg 72%
    04:00 -1°C° 0 mm 2 m/S 675 mmHg 72%
    05:00 -1°C° 0 mm 2 m/S 675 mmHg 72%
    06:00 -1°C° 0 mm 2 m/S 675 mmHg 72%
    07:00 -1°C° 0 mm 2 m/S 675 mmHg 72%
    08:00 +2°C° 0 mm 2 m/S 676 mmHg 65%
    09:00 +4°C° 0 mm 2 m/S 676 mmHg 58%
    10:00 +7°C° 0 mm 1 m/S 677 mmHg 50%
    11:00 +8°C° 0 mm 1 m/S 677 mmHg 47%
    12:00 +9°C° 0 mm 1 m/S 676 mmHg 44%
    13:00 +10°C° 0 mm 1 m/S 676 mmHg 41%
    14:00 +9°C° 0 mm 1 m/S 676 mmHg 46%
    15:00 +8°C° 0 mm 1 m/S 676 mmHg 51%
    16:00 +8°C° 0 mm 1 m/S 675 mmHg 56%
    17:00 +6°C° 0 mm 1 m/S 675 mmHg 59%
    18:00 +5°C° 0 mm 1 m/S 675 mmHg 63%
    19:00 +3°C° 0 mm 1 m/S 674 mmHg 66%
    20:00 +3°C° 0 mm 1 m/S 674 mmHg 66%
    21:00 +3°C° 0 mm 1 m/S 674 mmHg 66%
    22:00 +3°C° 0 mm 1 m/S 674 mmHg 65%
    23:00 +2°C° 0 mm 1 m/S 674 mmHg 65%
    Mehr zeigen